Location: Sternwarte Stuttgart
(48.7670°N, 9.1830°E)
Time: 13:17:37
(UTC+01:00)

Cosmos 1238 Rocket - Pass Details

Date: 24 January 2019
Orbit: 376 x 1037 km, 82.9° (Epoch: 19 February)

Event Time Altitude Azimuth Distance (km) Brightness Sun altitude
Exits shadow 06:50:20 18° 298° (WNW) 1,370 4.2 -12.0°
Maximum altitude 06:51:44 21° 269° (W) 1,274 4.1 -11.7°
Drops below altitude 10° 06:55:02 10° 220° (SW) 1,993 5.4 -11.2°
Sets 06:57:53 0° 205° (SSW) 3,035 6.5 -10.8°
